Location: Quedlinburg
(51.7921°N, 11.1414°E)
Time: 06:32:16
(UTC+02:00)

METEOR M2 - Pass Details

Date: 22 March 2026
Orbit: 817 x 824 km, 98.5° (Epoch: 17 April)

Event Time Altitude Azimuth Distance (km) Brightness Sun altitude
Rises 03:13:57 0° 27° (NNE) 3,374 ? -26.4°
Reaches altitude 10° 03:17:14 10° 47° (NE) 2,435 ? -26.0°
Maximum altitude 03:20:37 17° 87° (E) 1,994 ? -25.6°
Drops below altitude 10° 03:23:59 10° 126° (SE) 2,422 ? -25.2°
Sets 03:27:13 0° 146° (SSE) 3,347 ? -24.8°
